Location: Tr�vern
(48.0333°N, 4.6000°W)
Time: 03:01:44
(UTC+00:00)

Helios 1A - Pass Details

Date: 14 July 2020
Orbit: 587 x 600 km, 98.2° (Epoch: 01 August)

Event Time Altitude Azimuth Distance (km) Brightness Sun altitude
Exits shadow 00:38:49 45° 230° (SW) 807 3.3 -20.3°
Maximum altitude 00:39:27 49° 260° (W) 760 3.3 -20.3°
Drops below altitude 10° 00:43:31 10° 336° (NNW) 1,928 6.5 -20.2°
Sets 00:45:45 0° 342° (NNW) 2,836 7.6 -20.2°
